FW7622 Weather Reports


Display with metric or nautical units.
time (UTC)temp
F
wind
direction
speed
MPH
gust
MPH
rain 1hr
in
rain 24hr
in
rain mn
in
humidity
%
barometer
mb
20260503020536 57 179 1.0 1.0 0.00 0.00 0.00 54 1009.7
20260503020033 57 178 2.0 2.0 0.00 0.00 0.00 53 1010.0
20260503015529 57 182 1.0 1.0 0.00 0.00 0.00 56 1009.7
20260503015027 57 183 1.0 1.0 0.00 0.00 0.00 55 1009.7
20260503014522 57 175 0.0 0.0 0.00 0.00 0.00 53 1009.4
20260503014021 57 183 0.0 0.0 0.00 0.00 0.00 53 1009.4
20260503013518 57 180 0.0 0.0 0.00 0.00 0.00 52 1009.4
20260503013015 57 135 1.0 1.0 0.00 0.00 0.00 54 1009.7
20260503012513 58 179 0.0 0.0 0.00 0.00 0.00 54 1009.7
20260503012009 58 184 3.0 3.0 0.00 0.00 0.00 49 1010.0
20260503011506 58 181 1.0 1.0 0.00 0.00 0.00 49 1009.7
20260503011003 58 184 2.0 2.0 0.00 0.00 0.00 48 1009.7
20260503010459 58 182 1.0 1.0 0.00 0.00 0.00 50 1010.0
20260503005957 58 176 1.0 1.0 0.00 0.00 0.00 48 1009.7
20260503005454 59 176 1.0 1.0 0.00 0.00 0.00 48 1009.7
20260503004950 59 180 1.0 2.0 0.00 0.00 0.00 48 1009.7
20260503004447 59 181 1.0 1.0 0.00 0.00 0.00 46 1010.0
20260503003945 59 184 1.0 1.0 0.00 0.00 0.00 46 1010.0
20260503003441 60 180 1.0 1.0 0.00 0.00 0.00 45 1010.0
20260503002938 60 190 2.0 2.0 0.00 0.00 0.00 45 1010.0
20260503002436 60 198 1.0 2.0 0.00 0.00 0.00 44 1010.0
20260503001932 60 185 1.0 2.0 0.00 0.00 0.00 44 1010.0
20260503001429 60 183 2.0 2.0 0.00 0.00 0.00 44 1009.7
20260503000926 60 191 2.0 2.0 0.00 0.00 0.00 44 1010.0
20260503000423 60 197 1.0 2.0 0.00 0.00 0.00 45 1010.4
20260502235920 60 202 1.0 2.0 0.00 0.00 0.00 45 1010.4
20260502235417 60 198 2.0 2.0 0.00 0.00 0.00 44 1010.4
20260502234915 60 207 2.0 2.0 0.00 0.00 0.00 42 1010.4
20260502234411 60 217 2.0 2.0 0.00 0.00 0.00 44 1010.4
20260502233908 60 204 4.0 5.0 0.00 0.00 0.00 43 1010.0
20260502233403 61 156 1.0 2.0 0.00 0.00 0.00 46 1010.4
20260502232901 61 222 4.0 5.0 0.00 0.00 0.00 43 1010.4
20260502232357 61 196 3.0 3.0 0.00 0.00 0.00 43 1010.4
20260502231854 61 236 3.0 3.0 0.00 0.00 0.00 43 1010.7
20260502231352 61 205 3.0 3.0 0.00 0.00 0.00 43 1010.4
20260502230849 61 206 3.0 3.0 0.00 0.00 0.00 43 1010.7
20260502230347 61 221 5.0 6.0 0.00 0.00 0.00 42 1010.7
20260502225844 61 228 3.0 5.0 0.00 0.00 0.00 42 1011.1
20260502225340 62 228 4.0 5.0 0.00 0.00 0.00 42 1011.1
20260502224837 61 192 1.0 1.0 0.00 0.00 0.00 43 1011.1
20260502224333 62 214 5.0 7.0 0.00 0.00 0.00 41 1011.5
20260502223831 61 223 5.0 6.0 0.00 0.00 0.00 42 1011.1
20260502223329 61 219 4.0 6.0 0.00 0.00 0.00 41 1011.5
20260502222826 61 178 5.0 6.0 0.00 0.00 0.00 42 1011.1
20260502222324 62 169 2.0 3.0 0.00 0.00 0.00 43 1011.1
20260502221819 61 212 6.0 7.0 0.00 0.00 0.00 42 1011.5
20260502221315 62 198 1.0 1.0 0.00 0.00 0.00 45 1011.1
20260502220813 61 213 2.0 2.0 0.00 0.00 0.00 44 1011.1
20260502220309 62 211 3.0 3.0 0.00 0.00 0.00 41 1011.5
20260502215806 62 210 3.0 3.0 0.00 0.00 0.00 42 1011.5
20260502215305 62 193 0.0 1.0 0.00 0.00 0.00 42 1011.5
20260502214800 60 223 1.0 1.0 0.00 0.00 0.00 44 1011.8
20260502214256 60 274 2.0 2.0 0.00 0.00 0.00 43 1011.8
20260502213754 63 65 1.0 1.0 0.00 0.00 0.00 42 1011.8
20260502213251 62 213 1.0 1.0 0.00 0.00 0.00 42 1011.5
20260502212750 63 129 1.0 2.0 0.00 0.00 0.00 42 1011.8
20260502212248 63 206 4.0 5.0 0.00 0.00 0.00 41 1012.2
20260502211743 62 256 3.0 5.0 0.00 0.00 0.00 41 1012.2
20260502211240 63 202 2.0 3.0 0.00 0.00 0.00 42 1012.2
20260502210737 63 285 3.0 3.0 0.00 0.00 0.00 40 1012.2
20260502210229 63 329 2.0 3.0 0.00 0.00 0.00 41 1012.5
20260502205726 63 213 5.0 7.0 0.00 0.00 0.00 42 1012.2
20260502205222 60 186 1.0 1.0 0.00 0.00 0.00 43 1012.5
20260502204719 63 222 5.0 6.0 0.00 0.00 0.00 40 1012.5
20260502204217 63 168 3.0 3.0 0.00 0.00 0.00 42 1012.5
20260502203714 63 195 2.0 3.0 0.00 0.00 0.00 40 1012.9
20260502203212 61 187 3.0 3.0 0.00 0.00 0.00 41 1012.5
20260502202706 62 14 5.0 6.0 0.00 0.00 0.00 41 1012.9
20260502202205 61 218 3.0 5.0 0.00 0.00 0.00 40 1012.5
20260502201702 61 225 4.0 5.0 0.00 0.00 0.00 40 1012.9
20260502201158 61 182 4.0 6.0 0.00 0.00 0.00 40 1012.9
20260502200654 62 216 5.0 6.0 0.00 0.00 0.00 39 1013.2
20260502200150 61 215 4.0 6.0 0.00 0.00 0.00 40 1012.9
20260502195649 62 230 7.0 9.0 0.00 0.00 0.00 39 1013.2
20260502195145 63 347 3.0 3.0 0.00 0.00 0.00 39 1013.2
20260502194642 62 358 3.0 3.0 0.00 0.00 0.00 39 1013.5
20260502194138 62 146 1.0 1.0 0.00 0.00 0.00 40 1013.2
20260502193635 61 221 2.0 3.0 0.00 0.00 0.00 38 1013.5
20260502193132 61 191 3.0 3.0 0.00 0.00 0.00 39 1013.9
20260502192627 61 228 4.0 6.0 0.00 0.00 0.00 38 1013.5
20260502192125 61 189 1.0 2.0 0.00 0.00 0.00 40 1013.9
20260502191622 61 304 3.0 3.0 0.00 0.00 0.00 38 1013.9
20260502191119 61 166 4.0 7.0 0.00 0.00 0.00 39 1013.9
20260502190617 61 294 3.0 5.0 0.00 0.00 0.00 38 1013.9
20260502190114 60 190 3.0 5.0 0.00 0.00 0.00 40 1013.9
20260502185608 60 266 2.0 5.0 0.00 0.00 0.00 43 1014.2
20260502185106 59 172 4.0 5.0 0.00 0.00 0.00 38 1014.2
20260502184602 60 197 4.0 5.0 0.00 0.00 0.00 37 1014.2
20260502184057 60 248 3.0 3.0 0.00 0.00 0.00 40 1014.5
20260502183554 60 229 3.0 3.0 0.00 0.00 0.00 39 1014.2
20260502183051 59 253 2.0 3.0 0.00 0.00 0.00 39 1014.5
20260502182546 59 198 2.0 6.0 0.00 0.00 0.00 41 1014.5
20260502182042 60 322 6.0 7.0 0.00 0.00 0.00 41 1014.5
20260502181540 59 96 1.0 1.0 0.00 0.00 0.00 40 1014.5
20260502181038 59 227 5.0 6.0 0.00 0.00 0.00 39 1015.0
20260502180535 60 179 1.0 2.0 0.00 0.00 0.00 39 1015.0
20260502170454 57 209 4.0 5.0 0.00 0.00 0.00 42 1015.7
20260502163937 57 210 2.0 2.0 0.00 0.00 0.00 42 1015.7
20260502163433 57 298 3.0 3.0 0.00 0.00 0.00 42 1016.0
20260502162931 57 218 6.0 9.0 0.00 0.00 0.00 40 1016.0
20260502162427 57 215 5.0 7.0 0.00 0.00 0.00 41 1016.0
20260502161925 57 178 2.0 5.0 0.00 0.00 0.00 44 1016.0
20260502161421 57 0 3.0 5.0 0.00 0.00 0.00 40 1016.0
20260502160919 57 148 3.0 5.0 0.00 0.00 0.00 40 1016.3
20260502160417 56 140 3.0 3.0 0.00 0.00 0.00 42 1016.3
20260502151849 56 159 2.0 2.0 0.00 0.00 0.00 43 1016.7
20260502151345 55 177 0.0 1.0 0.00 0.00 0.00 46 1016.7
20260502150843 54 287 3.0 3.0 0.00 0.00 0.00 45 1016.7
20260502150339 55 204 3.0 3.0 0.00 0.00 0.00 44 1016.7
20260502130728 43 162 0.0 0.0 0.00 0.00 0.00 69 1017.0
20260502130225 43 165 0.0 0.0 0.00 0.00 0.00 68 1017.4
20260502123711 34 157 0.0 0.0 0.00 0.00 0.00 80 1017.4
20260502123208 36 157 0.0 0.0 0.00 0.00 0.00 81 1017.4
20260502122704 33 158 0.0 0.0 0.00 0.00 0.00 85 1017.4
20260502122201 32 158 0.0 0.0 0.00 0.00 0.00 90 1017.4
20260502121659 30 158 0.0 0.0 0.00 0.00 0.00 93 1017.4
20260502121157 27 159 0.0 0.0 0.00 0.00 0.00 93 1017.4
20260502120653 26 159 0.0 0.0 0.00 0.00 0.00 94 1017.4
20260502120150 26 159 0.0 0.0 0.00 0.00 0.00 94 1017.4
20260502115648 25 159 0.0 0.0 0.00 0.00 0.00 94 1017.0
20260502115143 25 159 0.0 0.0 0.00 0.00 0.00 95 1017.0
20260502114640 24 158 0.0 0.0 0.00 0.00 0.00 95 1017.0
20260502114138 24 158 0.0 0.0 0.00 0.00 0.00 95 1017.4
20260502113635 24 159 0.0 0.0 0.00 0.00 0.00 96 1017.4
20260502113133 23 159 0.0 0.0 0.00 0.00 0.00 96 1017.4
20260502112630 23 159 0.0 0.0 0.00 0.00 0.00 96 1017.0
20260502112127 23 159 0.0 0.0 0.00 0.00 0.00 95 1017.0
20260502111625 23 159 0.0 0.0 0.00 0.00 0.00 95 1017.0
20260502111122 23 159 0.0 0.0 0.00 0.00 0.00 95 1017.0
20260502110620 23 158 0.0 0.0 0.00 0.00 0.00 95 1017.0
20260502110117 23 158 0.0 0.0 0.00 0.00 0.00 95 1017.0
20260502105614 23 158 0.0 0.0 0.00 0.00 0.00 95 1017.0
20260502105111 24 158 0.0 0.0 0.00 0.00 0.00 95 1017.0
20260502104609 24 158 0.0 0.0 0.00 0.00 0.00 94 1017.0
20260502104106 24 158 0.0 0.0 0.00 0.00 0.00 94 1017.0
20260502103603 24 158 0.0 0.0 0.00 0.00 0.00 94 1017.0
20260502103102 24 158 0.0 0.0 0.00 0.00 0.00 94 1017.0
20260502102557 24 158 0.0 0.0 0.00 0.00 0.00 94 1017.4
20260502102055 24 159 0.0 0.0 0.00 0.00 0.00 93 1017.4
20260502101553 24 158 0.0 0.0 0.00 0.00 0.00 93 1017.4
20260502101051 24 158 0.0 0.0 0.00 0.00 0.00 93 1017.4
20260502100549 24 158 0.0 0.0 0.00 0.00 0.00 93 1017.0
20260502091524 25 163 0.0 0.0 0.00 0.00 0.00 94 1017.4
20260502091021 25 164 0.0 0.0 0.00 0.00 0.00 94 1017.4
20260502090517 25 164 0.0 0.0 0.00 0.00 0.00 93 1017.0
20260502071412 27 155 0.0 0.0 0.00 0.00 0.00 86 1017.7
20260502070910 28 158 0.0 0.0 0.00 0.00 0.00 86 1017.4
20260502070408 28 159 0.0 0.0 0.00 0.00 0.00 85 1017.7
20260502065906 28 150 0.0 0.0 0.00 0.00 0.00 85 1017.7
20260502065405 28 146 0.0 1.0 0.00 0.00 0.00 85 1017.7
20260502064902 28 136 1.0 1.0 0.00 0.00 0.00 85 1017.7
20260502064400 28 143 1.0 1.0 0.00 0.00 0.00 84 1017.7
20260502063856 28 146 0.0 0.0 0.00 0.00 0.00 84 1017.7
20260502063354 28 146 1.0 1.0 0.00 0.00 0.00 84 1018.0
20260502062851 28 139 1.0 1.0 0.00 0.00 0.00 84 1017.7
20260502062349 28 137 1.0 1.0 0.00 0.00 0.00 84 1018.0
20260502061848 28 143 0.0 1.0 0.00 0.00 0.00 83 1018.0
20260502061345 28 153 1.0 1.0 0.00 0.00 0.00 83 1018.0
20260502060841 28 152 1.0 1.0 0.00 0.00 0.00 83 1018.0
20260502060336 28 153 0.0 1.0 0.00 0.00 0.00 83 1018.0
20260502055834 28 154 1.0 1.0 0.00 0.00 0.00 83 1018.0
20260502055332 29 156 0.0 0.0 0.00 0.00 0.00 82 1017.7
20260502054831 29 146 0.0 1.0 0.00 0.00 0.00 82 1018.0
20260502054328 29 135 1.0 1.0 0.00 0.00 0.00 81 1018.0
20260502053826 30 143 1.0 1.0 0.00 0.00 0.00 79 1017.7
20260502053323 30 156 0.0 0.0 0.00 0.00 0.00 80 1018.0
20260502052820 30 156 0.0 1.0 0.00 0.00 0.00 80 1018.0
20260502052318 30 148 0.0 0.0 0.00 0.00 0.00 80 1018.0
20260502051815 31 142 0.0 1.0 0.00 0.00 0.00 80 1018.0
20260502051315 31 153 0.0 1.0 0.00 0.00 0.00 80 1018.0
20260502050810 31 155 1.0 1.0 0.00 0.00 0.00 80 1017.7
20260502050307 31 132 1.0 1.0 0.00 0.00 0.00 79 1017.7
20260502045804 31 150 0.0 1.0 0.00 0.00 0.00 79 1017.7
20260502045300 32 150 0.0 0.0 0.00 0.00 0.00 79 1017.7
20260502044758 32 143 1.0 1.0 0.00 0.00 0.00 79 1017.7
20260502044253 32 141 1.0 1.0 0.00 0.00 0.00 78 1017.7
20260502043751 32 142 1.0 1.0 0.00 0.00 0.00 78 1017.7
20260502043248 32 148 0.0 0.0 0.00 0.00 0.00 77 1017.7
20260502042748 33 137 1.0 1.0 0.00 0.00 0.00 76 1017.7
20260502042245 33 130 1.0 1.0 0.00 0.00 0.00 75 1017.7
20260502041743 33 153 0.0 0.0 0.00 0.00 0.00 75 1017.7
20260502041240 33 143 1.0 1.0 0.00 0.00 0.00 74 1017.7
20260502040737 33 135 1.0 1.0 0.00 0.00 0.00 73 1017.7
20260502040234 33 133 1.0 1.0 0.00 0.00 0.00 73 1017.4
20260502035729 34 151 0.0 1.0 0.00 0.00 0.00 73 1017.7
20260502035227 34 146 1.0 1.0 0.00 0.00 0.00 73 1018.0
20260502034724 34 156 0.0 0.0 0.00 0.00 0.00 74 1017.7
20260502034222 34 157 0.0 0.0 0.00 0.00 0.00 73 1017.7
20260502033720 35 157 0.0 0.0 0.00 0.00 0.00 73 1017.7
20260502033218 35 157 0.0 0.0 0.00 0.00 0.00 70 1017.7
20260502032714 35 156 0.0 0.0 0.00 0.00 0.00 70 1018.0
20260502032210 35 156 0.0 0.0 0.00 0.00 0.00 70 1017.7
20260502031708 36 156 0.0 0.0 0.00 0.00 0.00 69 1017.7
20260502031206 36 157 0.0 0.0 0.00 0.00 0.00 70 1017.7
20260502030704 36 156 0.0 0.0 0.00 0.00 0.00 68 1017.7
20260502030202 36 156 0.0 0.0 0.00 0.00 0.00 70 1017.7
20260502025658 36 155 0.0 0.0 0.00 0.00 0.00 68 1017.7
20260502025156 36 155 0.0 1.0 0.00 0.00 0.00 67 1017.7
20260502024654 37 157 0.0 0.0 0.00 0.00 0.00 68 1017.7
20260502024152 37 157 0.0 0.0 0.00 0.00 0.00 67 1017.7
20260502023650 37 150 0.0 0.0 0.00 0.00 0.00 66 1017.7
20260502023147 37 147 1.0 1.0 0.00 0.00 0.00 65 1017.7
20260502022644 37 146 1.0 1.0 0.00 0.00 0.00 64 1017.7
20260502022141 38 155 0.0 0.0 0.00 0.00 0.00 63 1017.7
20260502021638 38 152 0.0 0.0 0.00 0.00 0.00 62 1017.4
20260502021135 38 149 0.0 0.0 0.00 0.00 0.00 61 1017.7